Weather History for KMIV - May, 2012

Change the Weather History Date:

Tuesday, May 8, 2012

  Actual Average (KACY) Record (KACY)
Temperature  
Mean Temperature 62 °F 59 °F  
Max Temperature 70 °F 69 °F 91 °F (2000)
Min Temperature 55 °F 48 °F 26 °F (1981)
Degree Days  
Heating Degree Days 3 7  
Month to date heating degree days 66  
Since 1 July heating degree days 4770  
Cooling Degree Days 0 1  
Month to date cooling degree days 8  
Year to date cooling degree days 17  
Growing Degree Days 12 (Base 50)    
Moisture  
Dew Point 53 °F    
Average Humidity 68    
Maximum Humidity 80    
Minimum Humidity 57    
Precipitation  
Precipitation 0.00 in 0.11 in 1.72 in (1998)
Month to date precipitation 0.81  
Year to date precipitation 14.74  
Snow  
Snow 0.00 in 0.00 in 0.00 in (1903)
Month to date snowfall 0.0  
Since 1 July snowfall 16.5  
Snow Depth -    
Sea Level Pressure  
Sea Level Pressure 29.95 in    
Wind  
Wind Speed 7 mph (SSE)    
Max Wind Speed 15 mph    
Max Gust Speed 25 mph    
Visibility 10 miles    
Events      
T = Trace of Precipitation, MM = Missing Value Source: NWS Daily Summary

Daily Weather History Graph

Daily Weather History Graph

Search for Another Location

Airport or City:

Trip Planner

Search our weather history database for the weather conditions in past years. The results will help you decide how hot, cold, wet, or windy it might be!

Date:

Astronomy

May. 08, 2012 Rise Set
Actual Time 5:53 AM EDT 8:01 PM EDT
Civil Twilight 5:23 AM EDT 8:30 PM EDT
Nautical Twilight 4:47 AM EDT 9:07 PM EDT
Astronomical Twilight 4:07 AM EDT 9:47 PM EDT
Moon 11:08 PM EDT (5/8) 7:58 AM EDT (5/8)
Length of Visible Light 15h 07m
Length of Day
14h 08m
Waning Gibbous, 91% of the Moon is Illuminated
May 8
Waning Gibbous
May 12
Last Quarter
May 20
New
May 28
First Quarter
Jun 4
Full

Hourly Weather History & Observations

Time (EDT) Temp. Dew Point Humidity Pressure Visibility Wind Dir Wind Speed Gust Speed Precip Events Conditions
12:54 AM 55.9 °F 50.0 °F 80% 30.08 in 10.0 mi SSE 3.5 mph - N/A   Overcast
1:54 AM 57.9 °F 50.0 °F 75% 30.06 in 10.0 mi Variable 4.6 mph - N/A   Overcast
2:54 AM 57.9 °F 50.0 °F 75% 30.04 in 10.0 mi SE 5.8 mph - N/A   Overcast
3:54 AM 59.0 °F 51.1 °F 75% 30.02 in 10.0 mi SSE 6.9 mph - N/A   Overcast
4:54 AM 60.1 °F 50.0 °F 69% 30.01 in 10.0 mi SSE 8.1 mph - N/A   Overcast
5:54 AM 60.1 °F 51.1 °F 72% 30.01 in 10.0 mi Variable 5.8 mph - N/A   Overcast
6:54 AM 60.1 °F 52.0 °F 75% 30.02 in 10.0 mi Variable 3.5 mph - N/A   Overcast
7:54 AM 62.1 °F 53.1 °F 72% 30.02 in 10.0 mi Variable 5.8 mph - N/A   Clear
8:54 AM 64.9 °F 52.0 °F 63% 30.01 in 10.0 mi South 9.2 mph 18.4 mph N/A   Clear
9:54 AM 66.0 °F 52.0 °F 60% 29.99 in 10.0 mi South 11.5 mph 21.9 mph N/A   Partly Cloudy
10:54 AM 66.9 °F 53.1 °F 61% 29.98 in 10.0 mi South 11.5 mph 20.7 mph N/A   Clear
11:54 AM 68.0 °F 53.1 °F 59% 29.96 in 10.0 mi South 8.1 mph 20.7 mph N/A   Clear
12:54 PM 69.1 °F 53.1 °F 57% 29.94 in 10.0 mi South 12.7 mph 24.2 mph N/A   Clear
1:54 PM 69.1 °F 53.1 °F 57% 29.92 in 10.0 mi SSE 15.0 mph 25.3 mph N/A   Clear
2:54 PM 68.0 °F 54.0 °F 61% 29.92 in 10.0 mi SSE 10.4 mph 19.6 mph N/A   Partly Cloudy
3:54 PM 68.0 °F 55.0 °F 63% 29.90 in 10.0 mi Variable 6.9 mph - N/A   Mostly Cloudy
4:54 PM 68.0 °F 54.0 °F 61% 29.88 in 10.0 mi South 8.1 mph 18.4 mph 0.00 in   Overcast
5:54 PM 66.0 °F 54.0 °F 65% 29.86 in 10.0 mi South 9.2 mph 21.9 mph 0.00 in   Overcast
6:54 PM 64.9 °F 54.0 °F 68% 29.84 in 10.0 mi SSE 11.5 mph 18.4 mph 0.00 in   Mostly Cloudy
7:54 PM 64.0 °F 55.0 °F 73% 29.84 in 10.0 mi South 9.2 mph 20.7 mph N/A   Overcast
8:54 PM 64.9 °F 55.0 °F 70% 29.85 in 10.0 mi Variable 5.8 mph - N/A   Overcast
9:54 PM 64.9 °F 55.0 °F 70% 29.86 in 10.0 mi South 6.9 mph - N/A   Overcast
10:54 PM 64.0 °F 57.0 °F 78% 29.85 in 10.0 mi Variable 5.8 mph - 0.00 in   Overcast
11:54 PM 64.9 °F 57.0 °F 75% 29.84 in 10.0 mi Variable 5.8 mph - N/A   Overcast